Location: Vesunti
(61.5000°N, 22.8333°E)
Time: 06:36:02
(UTC+00:00)

NOSS 2-2 (E) - Pass Details

Date: 17 February 2020
Orbit: 481 x 1726 km, 63.3° (Epoch: 28 March)

Event Time Altitude Azimuth Distance (km) Brightness Sun altitude
Exits shadow 03:16:29 41° 282° (WNW) 1,138 4.4 -20.9°
Maximum altitude 03:18:21 72° 209° (SSW) 903 4.2 -20.7°
Drops below altitude 10° 03:25:08 10° 127° (SE) 2,962 7.6 -19.9°
Sets 03:28:17 0° 126° (SE) 4,129 8.4 -19.5°
